Location: Rodanthe
(35.5920°N, 75.4670°W)
Time: 02:34:32
(UTC-04:00)

ISS - All Passes

Search period start: 25 April 2015 00:00
Search period end: 05 May 2015 00:00
Orbit: 395 x 402 km, 51.6° (Epoch: 24 April)

Date Brightness Start Highest point End Pass type
(mag) Time Alt. Az. Time Alt. Az. Time Alt. Az.
25 Apr - 11:47:41 10° SSW 11:50:50 50° SE 11:54:00 10° ENE daylight
25 Apr - 13:25:08 10° WNW 13:27:24 17° NNW 13:29:39 10° NNE daylight
25 Apr - 18:17:50 10° NNW 18:20:15 19° NNE 18:22:43 10° E daylight
25 Apr - 19:53:40 10° WNW 19:56:46 41° SW 19:59:49 10° SSE daylight
26 Apr - 10:54:18 10° S 10:56:52 22° SE 10:59:30 10° ENE daylight
26 Apr - 12:30:14 10° W 12:33:08 29° NW 12:36:03 10° NNE daylight
26 Apr - 17:24:32 10° N 17:25:54 12° NNE 17:27:20 10° NE daylight
26 Apr - 18:59:28 10° NW 19:02:44 83° NE 19:05:58 10° SE daylight
27 Apr - 10:02:36 10° SE 10:02:56 10° SE 10:03:25 10° ESE daylight
27 Apr - 11:35:44 10° WSW 11:38:56 60° NW 11:42:10 10° NE daylight
27 Apr - 13:15:15 10° NNW 13:15:54 10° NNW 13:16:28 10° NNW daylight
27 Apr - 18:05:30 10° NNW 18:08:34 37° NE 18:11:37 10° ESE daylight
27 Apr - 19:42:32 10° W 19:44:43 16° SW 19:46:50 10° S daylight
28 Apr - 10:41:38 10° SW 10:44:50 58° SE 10:48:02 10° NE daylight
28 Apr - 12:19:19 10° WNW 12:21:27 16° NNW 12:23:32 10° NNE daylight
28 Apr - 17:11:44 10° NNW 17:14:15 21° NNE 17:16:50 10° E daylight
28 Apr - 18:47:40 10° WNW 18:50:42 36° SW 18:53:42 10° SSE daylight
29 Apr - 09:48:03 10° S 09:50:45 25° SE 09:53:29 10° ENE daylight
29 Apr - 11:24:14 10° W 11:27:03 26° NW 11:29:52 10° NNE daylight
29 Apr - 16:18:14 10° N 16:19:49 13° NNE 16:21:27 10° NE daylight
29 Apr - 17:53:19 10° NW 17:56:35 87° SW 17:59:49 10° SE daylight
30 Apr - 08:55:37 10° SSE 08:56:42 11° SE 08:57:54 10° ESE daylight
30 Apr - 10:29:34 10° WSW 10:32:44 53° NW 10:35:55 10° NE daylight
30 Apr - 16:59:13 10° NW 17:02:20 41° NE 17:05:26 10° ESE daylight
30 Apr - 18:36:29 10° W 18:38:27 15° SW 18:40:18 10° SSW daylight
01 May - 09:35:17 10° SW 09:38:29 66° SE 09:41:43 10° NE daylight
01 May - 11:13:10 10° WNW 11:15:09 15° NNW 11:17:05 10° N daylight
01 May - 16:05:18 10° NNW 16:07:56 22° NNE 16:10:35 10° E daylight
01 May - 17:41:23 10° WNW 17:44:19 32° SW 17:47:15 10° SSE daylight
02 May - 08:41:31 10° SSW 08:44:18 28° SE 08:47:08 10° ENE daylight
02 May - 10:17:53 10° W 10:20:38 24° NNW 10:23:22 10° NNE daylight
02 May - 15:11:39 10° N 15:13:24 14° NNE 15:15:12 10° ENE daylight
02 May - 16:46:52 10° NW 16:50:07 77° SW 16:53:21 10° SE daylight
03 May - 07:48:40 10° SSE 07:50:08 13° SE 07:51:43 10° E daylight
03 May - 09:23:03 10° WSW 09:26:12 47° NW 09:29:21 10° NE daylight
03 May - 15:52:38 10° NW 15:55:46 46° NE 15:58:54 10° ESE daylight
03 May - 17:30:08 10° W 17:31:51 13° SW 17:33:26 10° SSW daylight
04 May - 08:28:37 10° SW 08:31:50 74° SE 08:35:04 10° NE daylight
04 May - 10:06:41 10° WNW 10:08:32 14° NNW 10:10:19 10° N daylight
04 May - 14:58:35 10° NNW 15:01:17 24° NNE 15:04:00 10° E daylight
04 May - 16:34:45 10° WNW 16:37:38 29° SW 16:40:28 10° SSE daylight
